Weather History for KBRO - March, 2014

Change the Weather History Date:

Sunday, March 30, 2014

  Actual Average Record
Temperature  
Mean Temperature 71 °F 72 °F  
Max Temperature 79 °F 81 °F 100 °F (1989)
Min Temperature 63 °F 62 °F 38 °F (1930)
Degree Days  
Heating Degree Days 0 1  
Month to date heating degree days 90 43  
Since 1 July heating degree days 814 546  
Cooling Degree Days 6 7  
Month to date cooling degree days 114 166  
Year to date cooling degree days 234 307  
Growing Degree Days 21 (Base 50)    
Moisture  
Dew Point 62 °F    
Average Humidity 77    
Maximum Humidity 100    
Minimum Humidity 54    
Precipitation  
Precipitation T in 0.04 in 0.23 in (1964)
Month to date precipitation 1.46 1.19  
Year to date precipitation 2.22 3.54  
Sea Level Pressure  
Sea Level Pressure 30.12 in    
Wind  
Wind Speed 10 mph (ESE)    
Max Wind Speed 22 mph    
Max Gust Speed 29 mph    
Visibility 10 miles    
Events      
T = Trace of Precipitation, MM = Missing Value Source: NWS Daily Summary

Daily Weather History Graph

Daily Weather History Graph

Search for Another Location

Airport or City:

Trip Planner

Search our weather history database for the weather conditions in past years. The results will help you decide how hot, cold, wet, or windy it might be!

Date:

Astronomy

Mar. 30, 2014 Rise Set
Actual Time 7:22 AM CDT 7:45 PM CDT
Civil Twilight 6:59 AM CDT 8:08 PM CDT
Nautical Twilight 6:32 AM CDT 8:35 PM CDT
Astronomical Twilight 6:05 AM CDT 9:03 PM CDT
Moon 7:09 AM CDT (3/30) 7:56 PM CDT (3/30)
Length of Visible Light 13h 08m
Length of Day
12h 22m
Waning Crescent, 0% of the Moon is Illuminated
Mar 30
Waning Crescent
Mar 30
New
Apr 7
First Quarter
Apr 15
Full
Apr 22
Last Quarter

Hourly Weather History & Observations

Time (CDT) Temp. Dew Point Humidity Pressure Visibility Wind Dir Wind Speed Gust Speed Precip Events Conditions
12:53 AM 63.0 °F 62.1 °F 97% 30.21 in 10.0 mi WNW 3.5 mph - N/A   Clear
1:53 AM 63.0 °F 62.1 °F 97% 30.20 in 10.0 mi Calm Calm - N/A   Clear
2:53 AM 63.0 °F 62.1 °F 97% 30.18 in 10.0 mi Calm Calm - N/A   Clear
3:53 AM 64.0 °F 63.0 °F 96% 30.15 in 9.0 mi Calm Calm - 0.00 in   Mostly Cloudy
4:53 AM 64.0 °F 63.0 °F 96% 30.14 in 9.0 mi Calm Calm - N/A   Mostly Cloudy
5:53 AM 64.0 °F 62.1 °F 93% 30.13 in 10.0 mi Calm Calm - N/A   Clear
6:20 AM 62.6 °F 62.6 °F 100% 30.15 in 10.0 mi Calm Calm - N/A   Mostly Cloudy
6:29 AM 64.4 °F 62.6 °F 94% 30.16 in 10.0 mi WNW 3.5 mph - N/A   Scattered Clouds
6:53 AM 63.0 °F 62.1 °F 97% 30.15 in 10.0 mi NNE 4.6 mph - N/A   Clear
7:53 AM 63.0 °F 62.1 °F 97% 30.16 in 10.0 mi NNE 5.8 mph - N/A   Clear
8:53 AM 66.0 °F 64.0 °F 93% 30.19 in 10.0 mi ENE 4.6 mph - N/A   Clear
9:53 AM 73.0 °F 64.0 °F 73% 30.19 in 10.0 mi ESE 10.4 mph 18.4 mph N/A   Clear
10:53 AM 75.0 °F 62.1 °F 64% 30.19 in 10.0 mi ESE 13.8 mph - N/A   Clear
11:50 AM 75.2 °F 62.6 °F 65% 30.17 in 10.0 mi ESE 15.0 mph - N/A   Mostly Cloudy
11:53 AM 75.0 °F 62.1 °F 64% 30.17 in 10.0 mi ESE 16.1 mph - N/A   Mostly Cloudy
12:13 PM 75.2 °F 60.8 °F 61% 30.18 in 10.0 mi ESE 16.1 mph 21.9 mph N/A   Mostly Cloudy
12:53 PM 77.0 °F 61.0 °F 58% 30.17 in 10.0 mi East 16.1 mph - N/A   Scattered Clouds
1:53 PM 78.1 °F 60.1 °F 54% 30.15 in 10.0 mi ESE 17.3 mph 25.3 mph N/A   Scattered Clouds
2:53 PM 78.1 °F 61.0 °F 56% 30.12 in 10.0 mi ESE 16.1 mph 24.2 mph N/A   Partly Cloudy
3:53 PM 78.1 °F 61.0 °F 56% 30.08 in 10.0 mi ESE 18.4 mph - N/A   Partly Cloudy
4:53 PM 75.9 °F 61.0 °F 60% 30.06 in 10.0 mi ESE 16.1 mph 28.8 mph N/A   Scattered Clouds
5:53 PM 75.0 °F 62.1 °F 64% 30.04 in 10.0 mi ESE 19.6 mph 25.3 mph N/A   Mostly Cloudy
6:38 PM 73.4 °F 60.8 °F 65% 30.04 in 10.0 mi SE 18.4 mph 26.5 mph N/A   Mostly Cloudy
6:53 PM 72.0 °F 61.0 °F 68% 30.03 in 10.0 mi SE 20.7 mph 25.3 mph N/A   Mostly Cloudy
7:04 PM 71.6 °F 60.8 °F 69% 30.03 in 10.0 mi SE 16.1 mph 25.3 mph N/A   Scattered Clouds
7:53 PM 70.0 °F 62.1 °F 76% 30.04 in 10.0 mi SE 13.8 mph - N/A   Partly Cloudy
8:53 PM 68.0 °F 62.1 °F 81% 30.04 in 10.0 mi SE 10.4 mph - N/A   Clear
9:53 PM 66.9 °F 62.1 °F 84% 30.05 in 10.0 mi SE 10.4 mph - N/A   Clear
10:53 PM 66.0 °F 62.1 °F 87% 30.06 in 10.0 mi SSE 8.1 mph - N/A   Clear
11:53 PM 66.0 °F 63.0 °F 90% 30.04 in 10.0 mi SE 10.4 mph - N/A   Clear